"FILENAME","TIMESTAMP","SAMPLE","STATION","LATITUDE","LONGITUDE","SAMPLE_DATE","SAMPLE_TIME","DEPTH","DEPTH_UNITS","CHLOROPHYLLQ","CHLOROPHYLLV","CHLOROPHYLLU","DENSITYQ","DENSITYV","DENSITYU","DOQ","DOV","DOU","SALINITYQ","SALINITYV","SALINITYU","SUSOQ","SUSOV","SUSOU","TEMPQ","TEMPV","TEMPU","PHQ","PHV","PHU","OGQ","OGV","OGU","XMSQ","XMSV","XMSU",
"200711WQPL.csv","2008MAY29155957","1102072264","A1",  32.65933,-117.26200,"20071102",752,1,"m","",2.7735,"ug/L","",24.6976,"sigma-t","",7.83985,"mg/L","",33.4952,"ppt","",,"","",15.5,"C","",8.106,"pH","",,"","",88,"%",
"200711WQPL.csv","2008MAY29155957","1102072265","A1",  32.65933,-117.26200,"20071102",752,12,"m","",2.7228,"ug/L","",24.8492,"sigma-t","",7.64568,"mg/L","",33.4607,"ppt","",,"","",14.7,"C","",8.104,"pH","",,"","",88,"%",
"200711WQPL.csv","2008MAY29155957","1102072266","A1",  32.65933,-117.26200,"20071102",752,18,"m","",1.8149,"ug/L","",25.3054,"sigma-t","",6.42573,"mg/L","",33.5361,"ppt","",,"","",12.8,"C","",8.064,"pH","",,"","",87,"%",
"200711WQPL.csv","2008MAY29155957","1102072267","A6",  32.69267,-117.26967,"20071102",919,1,"m","",4.2096,"ug/L","",24.6049,"sigma-t","",7.76411,"mg/L","",33.5181,"ppt","",,"","",16,"C","",8.161,"pH","",,"","",85,"%",
"200711WQPL.csv","2008MAY29155957","1102072268","A6",  32.69267,-117.26967,"20071102",919,12,"m","",5.1387,"ug/L","",25.1184,"sigma-t","",6.87139,"mg/L","",33.4788,"ppt","",,"","",13.5,"C","",8.064,"pH","",,"","",88,"%",
"200711WQPL.csv","2008MAY29155957","1102072269","A6",  32.69267,-117.26967,"20071102",919,18,"m","",5.1521,"ug/L","",25.1446,"sigma-t","",6.87186,"mg/L","",33.4713,"ppt","",,"","",13.3,"C","",8.063,"pH","",,"","",88,"%",
"200711WQPL.csv","2008MAY29155957","1102072270","A7",  32.67550,-117.26683,"20071102",858,1,"m","",3.6747,"ug/L","",24.6156,"sigma-t","",7.9529,"mg/L","",33.5105,"ppt","",,"","",15.9,"C","",8.176,"pH","",,"","",87,"%",
"200711WQPL.csv","2008MAY29155957","1102072271","A7",  32.67550,-117.26683,"20071102",858,12,"m","",3.1387,"ug/L","",24.7213,"sigma-t","",7.75695,"mg/L","",33.4806,"ppt","",,"","",15.4,"C","",8.155,"pH","",,"","",88,"%",
"200711WQPL.csv","2008MAY29155957","1102072272","A7",  32.67550,-117.26683,"20071102",858,18,"m","",2.2715,"ug/L","",24.9541,"sigma-t","",7.2018,"mg/L","",33.4893,"ppt","",,"","",14.3,"C","",8.101,"pH","",,"","",88,"%",
"200711WQPL.csv","2008MAY29155957","1102072273","C4",  32.66583,-117.24967,"20071102",1050,1,"m","",1.6226,"ug/L","",24.4612,"sigma-t","",6.50979,"mg/L","",33.5519,"ppt","",,"","",16.8,"C","",8.049,"pH","",,"","",74,"%",
"200711WQPL.csv","2008MAY29155957","1102072274","C4",  32.66583,-117.24967,"20071102",1050,3,"m","",3.2312,"ug/L","",24.591,"sigma-t","",7.08082,"mg/L","",33.5392,"ppt","",,"","",16.1,"C","",8.11,"pH","",,"","",72,"%",
"200711WQPL.csv","2008MAY29155957","1102072275","C4",  32.66583,-117.24967,"20071102",1050,9,"m","",1.4023,"ug/L","",24.8821,"sigma-t","",6.0944,"mg/L","",33.4617,"ppt","",,"","",14.6,"C","",8.048,"pH","",,"","",79,"%",
"200711WQPL.csv","2008MAY29155957","1102072276","C5",  32.67917,-117.25667,"20071102",1039,1,"m","",3.1474,"ug/L","",24.496,"sigma-t","",6.96252,"mg/L","",33.5395,"ppt","",,"","",16.6,"C","",8.115,"pH","",,"","",79,"%",
"200711WQPL.csv","2008MAY29155957","1102072277","C5",  32.67917,-117.25667,"20071102",1039,3,"m","",3.3753,"ug/L","",24.5208,"sigma-t","",7.17859,"mg/L","",33.5474,"ppt","",,"","",16.5,"C","",8.115,"pH","",,"","",79,"%",
"200711WQPL.csv","2008MAY29155957","1102072278","C5",  32.67917,-117.25667,"20071102",1039,9,"m","",1.4114,"ug/L","",24.892,"sigma-t","",5.94393,"mg/L","",33.4502,"ppt","",,"","",14.5,"C","",8.031,"pH","",,"","",79,"%",
"200711WQPL.csv","2008MAY29155957","1102072279","C6",  32.69367,-117.26133,"20071102",1028,1,"m","",3.629,"ug/L","",24.4599,"sigma-t","",7.68537,"mg/L","",33.5562,"ppt","",,"","",16.8,"C","",8.176,"pH","",,"","",79,"%",
"200711WQPL.csv","2008MAY29155957","1102072280","C6",  32.69367,-117.26133,"20071102",1028,3,"m","",4.0092,"ug/L","",24.5207,"sigma-t","",7.63303,"mg/L","",33.5504,"ppt","",,"","",16.5,"C","",8.166,"pH","",,"","",80,"%",
"200711WQPL.csv","2008MAY29155957","1102072281","C6",  32.69367,-117.26133,"20071102",1028,9,"m","",1.3337,"ug/L","",24.9394,"sigma-t","",5.98081,"mg/L","",33.4619,"ppt","",,"","",14.3,"C","",8.02,"pH","",,"","",79,"%",
"200711WQPL.csv","2008MAY29155957","1102072282","C7",  32.71633,-117.27217,"20071102",942,1,"m","",4.1434,"ug/L","",24.5771,"sigma-t","",8.14061,"mg/L","",33.5171,"ppt","",,"","",16.1,"C","",8.216,"pH","",,"","",85,"%",
"200711WQPL.csv","2008MAY29155957","1102072283","C7",  32.71633,-117.27217,"20071102",942,12,"m","",2.8872,"ug/L","",25.0619,"sigma-t","",7.22487,"mg/L","",33.4463,"ppt","",,"","",13.6,"C","",8.098,"pH","",,"","",88,"%",
"200711WQPL.csv","2008MAY29155957","1102072284","C7",  32.71633,-117.27217,"20071102",942,18,"m","",1.4952,"ug/L","",25.1331,"sigma-t","",6.66115,"mg/L","",33.4596,"ppt","",,"","",13.3,"C","",8.045,"pH","",,"","",86,"%",
"200711WQPL.csv","2008MAY29155957","1102072285","C8",  32.73267,-117.27333,"20071102",1000,1,"m","",4.5206,"ug/L","",24.5401,"sigma-t","",8.14341,"mg/L","",33.5287,"ppt","",,"","",16.3,"C","",8.201,"pH","",,"","",85,"%",
"200711WQPL.csv","2008MAY29155957","1102072286","C8",  32.73267,-117.27333,"20071102",1000,12,"m","",4.1983,"ug/L","",25.0291,"sigma-t","",7.36703,"mg/L","",33.4149,"ppt","",,"","",13.7,"C","",8.109,"pH","",,"","",85,"%",
"200711WQPL.csv","2008MAY29155957","1102072287","C8",  32.73267,-117.27333,"20071102",1000,18,"m","",1.9496,"ug/L","",25.1442,"sigma-t","",6.89679,"mg/L","",33.4498,"ppt","",,"","",13.2,"C","",8.06,"pH","",,"","",83,"%",
"200711WQPL.csv","2008MAY29155957","1108072453","A1",  32.65933,-117.26200,"20071108",735,1,"m","",4.204,"ug/L","",24.907,"sigma-t","",7.42931,"mg/L","",33.4642,"ppt","",,"","",14.4,"C","",8.004,"pH","",,"","",85,"%",
"200711WQPL.csv","2008MAY29155957","1108072454","A1",  32.65933,-117.26200,"20071108",735,12,"m","",2.2779,"ug/L","",25.2808,"sigma-t","",5.99032,"mg/L","",33.4995,"ppt","",,"","",12.7,"C","",7.897,"pH","",,"","",84,"%",
"200711WQPL.csv","2008MAY29155957","1108072455","A1",  32.65933,-117.26200,"20071108",735,18,"m","",1.9413,"ug/L","",25.4394,"sigma-t","",5.67294,"mg/L","",33.5387,"ppt","",,"","",12.1,"C","",7.868,"pH","",,"","",83,"%",
"200711WQPL.csv","2008MAY29155957","1108072456","A6",  32.69267,-117.26967,"20071108",833,1,"m","",4.5146,"ug/L","",24.9113,"sigma-t","",7.442,"mg/L","",33.4806,"ppt","",,"","",14.5,"C","",8.018,"pH","",,"","",84,"%",
"200711WQPL.csv","2008MAY29155957","1108072457","A6",  32.69267,-117.26967,"20071108",833,12,"m","",2.0925,"ug/L","",25.3926,"sigma-t","",6.07788,"mg/L","",33.5155,"ppt","",,"","",12.2,"C","",7.919,"pH","",,"","",86,"%",
"200711WQPL.csv","2008MAY29155957","1108072458","A6",  32.69267,-117.26967,"20071108",833,18,"m","",1.4741,"ug/L","",25.4568,"sigma-t","",5.74117,"mg/L","",33.5218,"ppt","",,"","",11.9,"C","",7.902,"pH","",,"","",87,"%",
"200711WQPL.csv","2008MAY29155957","1108072459","A7",  32.67550,-117.26683,"20071108",816,1,"m","",5.5051,"ug/L","",24.8565,"sigma-t","",7.53862,"mg/L","",33.4775,"ppt","",,"","",14.7,"C","",8.043,"pH","",,"","",83,"%",
"200711WQPL.csv","2008MAY29155957","1108072460","A7",  32.67550,-117.26683,"20071108",816,12,"m","",1.6412,"ug/L","",25.3377,"sigma-t","",5.99962,"mg/L","",33.5126,"ppt","",,"","",12.5,"C","",7.916,"pH","",,"","",85,"%",
"200711WQPL.csv","2008MAY29155957","1108072461","A7",  32.67550,-117.26683,"20071108",816,18,"m","",1.4195,"ug/L","",25.4741,"sigma-t","",5.67676,"mg/L","",33.5434,"ppt","",,"","",11.9,"C","",7.892,"pH","",,"","",85,"%",
"200711WQPL.csv","2008MAY29155957","1108072462","C4",  32.66583,-117.24967,"20071108",952,1,"m","",3.9368,"ug/L","",24.9946,"sigma-t","",6.6879,"mg/L","",33.5113,"ppt","",,"","",14.2,"C","",7.965,"pH","",,"","",74,"%",
"200711WQPL.csv","2008MAY29155957","1108072463","C4",  32.66583,-117.24967,"20071108",952,3,"m","",5.0038,"ug/L","",25.0304,"sigma-t","",6.60516,"mg/L","",33.522,"ppt","",,"","",14.1,"C","",7.971,"pH","",,"","",73,"%",
"200711WQPL.csv","2008MAY29155957","1108072464","C4",  32.66583,-117.24967,"20071108",952,9,"m","",4.6576,"ug/L","",25.1874,"sigma-t","",6.22517,"mg/L","",33.5058,"ppt","",,"","",13.2,"C","",7.958,"pH","",,"","",67,"%",
"200711WQPL.csv","2008MAY29155957","1108072465","C5",  32.67917,-117.25667,"20071108",942,1,"m","",2.1984,"ug/L","",24.8475,"sigma-t","",6.23859,"mg/L","",33.4871,"ppt","",,"","",14.8,"C","",7.918,"pH","",,"","",60,"%",
"200711WQPL.csv","2008MAY29155957","1108072466","C5",  32.67917,-117.25667,"20071108",942,3,"m","",2.2114,"ug/L","",24.863,"sigma-t","",6.15165,"mg/L","",33.4882,"ppt","",,"","",14.7,"C","",7.914,"pH","",,"","",59,"%",
"200711WQPL.csv","2008MAY29155957","1108072467","C5",  32.67917,-117.25667,"20071108",942,9,"m","",1.9699,"ug/L","",24.9529,"sigma-t","",5.60501,"mg/L","",33.4844,"ppt","",,"","",14.3,"C","",7.902,"pH","",,"","",53,"%",
"200711WQPL.csv","2008MAY29155957","1108072468","C6",  32.69367,-117.26133,"20071108",927,1,"m","",1.73,"ug/L","",24.7933,"sigma-t","",6.81001,"mg/L","",33.4772,"ppt","",,"","",15,"C","",7.913,"pH","",,"","",71,"%",
"200711WQPL.csv","2008MAY29155957","1108072469","C6",  32.69367,-117.26133,"20071108",927,3,"m","",1.8743,"ug/L","",24.8621,"sigma-t","",6.69586,"mg/L","",33.4845,"ppt","",,"","",14.7,"C","",7.939,"pH","",,"","",71,"%",
"200711WQPL.csv","2008MAY29155957","1108072470","C6",  32.69367,-117.26133,"20071108",927,9,"m","",1.684,"ug/L","",25.0903,"sigma-t","",5.41997,"mg/L","",33.4941,"ppt","",,"","",13.7,"C","",7.891,"pH","",,"","",81,"%",
"200711WQPL.csv","2008MAY29155957","1108072471","C7",  32.71633,-117.27217,"20071108",850,1,"m","",5.1444,"ug/L","",24.8827,"sigma-t","",7.74083,"mg/L","",33.4577,"ppt","",,"","",14.5,"C","",8.063,"pH","",,"","",85,"%",
"200711WQPL.csv","2008MAY29155957","1108072472","C7",  32.71633,-117.27217,"20071108",850,12,"m","",1.6346,"ug/L","",25.2397,"sigma-t","",6.21574,"mg/L","",33.4696,"ppt","",,"","",12.8,"C","",7.935,"pH","",,"","",87,"%",
"200711WQPL.csv","2008MAY29155957","1108072473","C7",  32.71633,-117.27217,"20071108",850,18,"m","",1.6994,"ug/L","",25.3107,"sigma-t","",5.84136,"mg/L","",33.4686,"ppt","",,"","",12.5,"C","",7.911,"pH","",,"","",88,"%",
"200711WQPL.csv","2008MAY29155957","1108072474","C8",  32.73267,-117.27333,"20071108",909,1,"m","",4.1446,"ug/L","",24.8494,"sigma-t","",7.62208,"mg/L","",33.4391,"ppt","",,"","",14.6,"C","",8.056,"pH","",,"","",83,"%",
"200711WQPL.csv","2008MAY29155957","1108072475","C8",  32.73267,-117.27333,"20071108",909,12,"m","",3.2911,"ug/L","",25.168,"sigma-t","",6.58432,"mg/L","",33.4401,"ppt","",,"","",13.1,"C","",7.974,"pH","",,"","",84,"%",
"200711WQPL.csv","2008MAY29155957","1108072476","C8",  32.73267,-117.27333,"20071108",909,18,"m","",2.2569,"ug/L","",25.3031,"sigma-t","",6.14547,"mg/L","",33.4646,"ppt","",,"","",12.5,"C","",7.942,"pH","",,"","",84,"%",
"200711WQPL.csv","2008MAY29155957","1114072480","A1",  32.65933,-117.26200,"20071114",752,1,"m","",4.9557,"ug/L","",24.6565,"sigma-t","",8.14294,"mg/L","",33.5289,"ppt","",,"","",15.8,"C","",8.123,"pH","",,"","",84,"%",
"200711WQPL.csv","2008MAY29155957","1114072481","A1",  32.65933,-117.26200,"20071114",752,12,"m","",6.6107,"ug/L","",25.28,"sigma-t","",6.82012,"mg/L","",33.49,"ppt","",,"","",12.7,"C","",7.97,"pH","",,"","",85,"%",
"200711WQPL.csv","2008MAY29155957","1114072482","A1",  32.65933,-117.26200,"20071114",752,18,"m","",4.2316,"ug/L","",25.3943,"sigma-t","",6.1563,"mg/L","",33.5093,"ppt","",,"","",12.2,"C","",7.929,"pH","",,"","",86,"%",
"200711WQPL.csv","2008MAY29155957","1114072483","A6",  32.69267,-117.26967,"20071114",900,1,"m","",7.708,"ug/L","",24.7268,"sigma-t","",8.27376,"mg/L","",33.5074,"ppt","",,"","",15.4,"C","",8.12,"pH","",,"","",81,"%",
"200711WQPL.csv","2008MAY29155957","1114072484","A6",  32.69267,-117.26967,"20071114",900,12,"m","",4.1057,"ug/L","",25.3832,"sigma-t","",6.25575,"mg/L","",33.5049,"ppt","",,"","",12.2,"C","",7.92,"pH","",,"","",86,"%",
"200711WQPL.csv","2008MAY29155957","1114072485","A6",  32.69267,-117.26967,"20071114",900,18,"m","",3.0192,"ug/L","",25.4333,"sigma-t","",5.8525,"mg/L","",33.5103,"ppt","",,"","",12,"C","",7.901,"pH","",,"","",87,"%",
"200711WQPL.csv","2008MAY29155957","1114072486","A7",  32.67550,-117.26683,"20071114",839,1,"m","",4.2875,"ug/L","",24.7309,"sigma-t","",8.23639,"mg/L","",33.4982,"ppt","",,"","",15.4,"C","",8.107,"pH","",,"","",82,"%",
"200711WQPL.csv","2008MAY29155957","1114072487","A7",  32.67550,-117.26683,"20071114",839,12,"m","",5.9774,"ug/L","",25.321,"sigma-t","",6.60437,"mg/L","",33.4826,"ppt","",,"","",12.5,"C","",7.953,"pH","",,"","",86,"%",
"200711WQPL.csv","2008MAY29155957","1114072488","A7",  32.67550,-117.26683,"20071114",839,18,"m","",3.1431,"ug/L","",25.435,"sigma-t","",5.91964,"mg/L","",33.5096,"ppt","",,"","",12,"C","",7.903,"pH","",,"","",87,"%",
"200711WQPL.csv","2008MAY29155957","1114072489","C4",  32.66583,-117.24967,"20071114",1011,1,"m","",3.0246,"ug/L","",24.809,"sigma-t","",8.24627,"mg/L","",33.4731,"ppt","",,"","",14.9,"C","",8.09,"pH","",,"","",74,"%",
"200711WQPL.csv","2008MAY29155957","1114072490","C4",  32.66583,-117.24967,"20071114",1011,3,"m","",4.5908,"ug/L","",24.8591,"sigma-t","",8.0655,"mg/L","",33.4743,"ppt","",,"","",14.7,"C","",8.076,"pH","",,"","",76,"%",
"200711WQPL.csv","2008MAY29155957","1114072491","C4",  32.66583,-117.24967,"20071114",1011,9,"m","",5.343,"ug/L","",25.1589,"sigma-t","",6.01074,"mg/L","",33.4844,"ppt","",,"","",13.3,"C","",7.938,"pH","",,"","",80,"%",
"200711WQPL.csv","2008MAY29155957","1114072492","C5",  32.67917,-117.25667,"20071114",959,1,"m","",1.7205,"ug/L","",24.7412,"sigma-t","",7.06066,"mg/L","",33.4743,"ppt","",,"","",15.3,"C","",7.947,"pH","",,"","",76,"%",
"200711WQPL.csv","2008MAY29155957","1114072493","C5",  32.67917,-117.25667,"20071114",959,3,"m","",1.9386,"ug/L","",24.8322,"sigma-t","",7.08976,"mg/L","",33.4835,"ppt","",,"","",14.9,"C","",7.948,"pH","",,"","",75,"%",
"200711WQPL.csv","2008MAY29155957","1114072494","C5",  32.67917,-117.25667,"20071114",959,9,"m","",4.0287,"ug/L","",25.061,"sigma-t","",5.73772,"mg/L","",33.5134,"ppt","",,"","",13.9,"C","",7.893,"pH","",,"","",78,"%",
"200711WQPL.csv","2008MAY29155957","1114072495","C6",  32.69367,-117.26133,"20071114",949,1,"m","",3.824,"ug/L","",24.7876,"sigma-t","",8.23487,"mg/L","",33.4668,"ppt","",,"","",15,"C","",8.048,"pH","",,"","",77,"%",
"200711WQPL.csv","2008MAY29155957","1114072496","C6",  32.69367,-117.26133,"20071114",949,3,"m","",4.2343,"ug/L","",24.8003,"sigma-t","",8.13865,"mg/L","",33.4696,"ppt","",,"","",15,"C","",8.046,"pH","",,"","",77,"%",
"200711WQPL.csv","2008MAY29155957","1114072497","C6",  32.69367,-117.26133,"20071114",949,9,"m","",2.1107,"ug/L","",25.0311,"sigma-t","",5.9972,"mg/L","",33.4765,"ppt","",,"","",13.9,"C","",7.902,"pH","",,"","",74,"%",
"200711WQPL.csv","2008MAY29155957","1114072498","C7",  32.71633,-117.27217,"20071114",917,1,"m","",7.3453,"ug/L","",24.6823,"sigma-t","",8.44577,"mg/L","",33.5095,"ppt","",,"","",15.6,"C","",8.136,"pH","",,"","",79,"%",
"200711WQPL.csv","2008MAY29155957","1114072499","C7",  32.71633,-117.27217,"20071114",917,12,"m","",5.7151,"ug/L","",25.0789,"sigma-t","",7.30195,"mg/L","",33.5079,"ppt","",,"","",13.8,"C","",8.011,"pH","",,"","",83,"%",
"200711WQPL.csv","2008MAY29155957","1114072500","C7",  32.71633,-117.27217,"20071114",917,18,"m","",2.1297,"ug/L","",25.4239,"sigma-t","",5.67622,"mg/L","",33.513,"ppt","",,"","",12.1,"C","",7.879,"pH","",,"","",82,"%",
"200711WQPL.csv","2008MAY29155957","1114072501","C8",  32.73267,-117.27333,"20071114",930,1,"m","",3.9837,"ug/L","",24.5003,"sigma-t","",8.36095,"mg/L","",33.5315,"ppt","",,"","",16.5,"C","",8.166,"pH","",,"","",81,"%",
"200711WQPL.csv","2008MAY29155957","1114072502","C8",  32.73267,-117.27333,"20071114",930,12,"m","",11.2814,"ug/L","",24.865,"sigma-t","",8.07798,"mg/L","",33.4844,"ppt","",,"","",14.7,"C","",8.102,"pH","",,"","",80,"%",
"200711WQPL.csv","2008MAY29155957","1114072503","C8",  32.73267,-117.27333,"20071114",930,18,"m","",5.1882,"ug/L","",25.4421,"sigma-t","",6.16403,"mg/L","",33.5417,"ppt","",,"","",12.1,"C","",7.926,"pH","",,"","",82,"%",
"200711WQPL.csv","2008MAY29155957","1120072520","A1",  32.65933,-117.26200,"20071120",732,1,"m","",6.1503,"ug/L","",24.7656,"sigma-t","",8.39123,"mg/L","",33.4949,"ppt","",,"","",15.2,"C","",8.109,"pH","",,"","",86,"%",
"200711WQPL.csv","2008MAY29155957","1120072521","A1",  32.65933,-117.26200,"20071120",732,12,"m","",5.9049,"ug/L","",25.1772,"sigma-t","",6.88367,"mg/L","",33.4437,"ppt","",,"","",13.1,"C","",7.972,"pH","",,"","",86,"%",
"200711WQPL.csv","2008MAY29155957","1120072522","A1",  32.65933,-117.26200,"20071120",732,18,"m","",3.8693,"ug/L","",25.3706,"sigma-t","",6.14732,"mg/L","",33.5008,"ppt","",,"","",12.3,"C","",7.946,"pH","",,"","",86,"%",
"200711WQPL.csv","2008MAY29155957","1120072523","A6",  32.69267,-117.26967,"20071120",824,1,"m","",5.4808,"ug/L","",24.7748,"sigma-t","",8.40978,"mg/L","",33.4936,"ppt","",,"","",15.2,"C","",8.12,"pH","",,"","",82,"%",
"200711WQPL.csv","2008MAY29155957","1120072524","A6",  32.69267,-117.26967,"20071120",824,12,"m","",6.6183,"ug/L","",25.0952,"sigma-t","",7.08893,"mg/L","",33.44,"ppt","",,"","",13.4,"C","",7.958,"pH","",,"","",86,"%",
"200711WQPL.csv","2008MAY29155957","1120072525","A6",  32.69267,-117.26967,"20071120",824,18,"m","",1.9598,"ug/L","",25.3998,"sigma-t","",5.79547,"mg/L","",33.4922,"ppt","",,"","",12.1,"C","",7.897,"pH","",,"","",85,"%",
"200711WQPL.csv","2008MAY29155957","1120072526","A7",  32.67550,-117.26683,"20071120",802,1,"m","",6.99,"ug/L","",24.787,"sigma-t","",8.48785,"mg/L","",33.4838,"ppt","",,"","",15.1,"C","",8.129,"pH","",,"","",85,"%",
"200711WQPL.csv","2008MAY29155957","1120072527","A7",  32.67550,-117.26683,"20071120",802,12,"m","",6.1734,"ug/L","",25.2086,"sigma-t","",6.89521,"mg/L","",33.464,"ppt","",,"","",13,"C","",7.985,"pH","",,"","",86,"%",
"200711WQPL.csv","2008MAY29155957","1120072528","A7",  32.67550,-117.26683,"20071120",802,18,"m","",1.749,"ug/L","",25.3923,"sigma-t","",5.89515,"mg/L","",33.4895,"ppt","",,"","",12.1,"C","",7.904,"pH","",,"","",86,"%",
"200711WQPL.csv","2008MAY29155957","1120072529","C4",  32.66583,-117.24967,"20071120",942,1,"m","",3.8135,"ug/L","",24.7195,"sigma-t","",8.45872,"mg/L","",33.5061,"ppt","",,"","",15.5,"C","",8.142,"pH","",,"","",78,"%",
"200711WQPL.csv","2008MAY29155957","1120072530","C4",  32.66583,-117.24967,"20071120",942,3,"m","",5.3073,"ug/L","",24.7543,"sigma-t","",8.62367,"mg/L","",33.504,"ppt","",,"","",15.3,"C","",8.16,"pH","",,"","",78,"%",
"200711WQPL.csv","2008MAY29155957","1120072531","C4",  32.66583,-117.24967,"20071120",942,9,"m","",2.1511,"ug/L","",25.0258,"sigma-t","",6.49531,"mg/L","",33.5003,"ppt","",,"","",14,"C","",7.996,"pH","",,"","",81,"%",
"200711WQPL.csv","2008MAY29155957","1120072532","C5",  32.67917,-117.25667,"20071120",932,1,"m","",3.398,"ug/L","",24.676,"sigma-t","",7.01419,"mg/L","",33.5124,"ppt","",,"","",15.7,"C","",8.004,"pH","",,"","",66,"%",
"200711WQPL.csv","2008MAY29155957","1120072533","C5",  32.67917,-117.25667,"20071120",932,3,"m","",3.853,"ug/L","",24.7207,"sigma-t","",7.21641,"mg/L","",33.5146,"ppt","",,"","",15.5,"C","",8.029,"pH","",,"","",68,"%",
"200711WQPL.csv","2008MAY29155957","1120072534","C5",  32.67917,-117.25667,"20071120",932,9,"m","",2.9179,"ug/L","",25.0599,"sigma-t","",6.05456,"mg/L","",33.5015,"ppt","",,"","",13.9,"C","",7.951,"pH","",,"","",69,"%",
"200711WQPL.csv","2008MAY29155957","1120072535","C6",  32.69367,-117.26133,"20071120",915,1,"m","",5.3226,"ug/L","",24.7185,"sigma-t","",6.80474,"mg/L","",33.5002,"ppt","",,"","",15.4,"C","",8.07,"pH","",,"","",76,"%",
"200711WQPL.csv","2008MAY29155957","1120072536","C6",  32.69367,-117.26133,"20071120",915,3,"m","",5.1479,"ug/L","",24.723,"sigma-t","",7.20098,"mg/L","",33.4996,"ppt","",,"","",15.4,"C","",8.065,"pH","",,"","",77,"%",
"200711WQPL.csv","2008MAY29155957","1120072537","C6",  32.69367,-117.26133,"20071120",915,9,"m","",2.4498,"ug/L","",25.1004,"sigma-t","",5.68395,"mg/L","",33.5083,"ppt","",,"","",13.7,"C","",7.924,"pH","",,"","",80,"%",
"200711WQPL.csv","2008MAY29155957","1120072538","C7",  32.71633,-117.27217,"20071120",841,1,"m","",5.6756,"ug/L","",24.7941,"sigma-t","",8.70887,"mg/L","",33.4835,"ppt","",,"","",15,"C","",8.172,"pH","",,"","",80,"%",
"200711WQPL.csv","2008MAY29155957","1120072539","C7",  32.71633,-117.27217,"20071120",841,12,"m","",4.5996,"ug/L","",25.269,"sigma-t","",6.27042,"mg/L","",33.4836,"ppt","",,"","",12.7,"C","",7.948,"pH","",,"","",84,"%",
"200711WQPL.csv","2008MAY29155957","1120072540","C7",  32.71633,-117.27217,"20071120",841,18,"m","",1.6189,"ug/L","",25.3412,"sigma-t","",5.74979,"mg/L","",33.4655,"ppt","",,"","",12.3,"C","",7.911,"pH","",,"","",84,"%",
"200711WQPL.csv","2008MAY29155957","1120072541","C8",  32.73267,-117.27333,"20071120",855,1,"m","",8.8057,"ug/L","",24.7903,"sigma-t","",8.38808,"mg/L","",33.4777,"ppt","",,"","",15,"C","",8.122,"pH","",,"","",80,"%",
"200711WQPL.csv","2008MAY29155957","1120072542","C8",  32.73267,-117.27333,"20071120",855,12,"m","",5.3927,"ug/L","",25.2789,"sigma-t","",6.32134,"mg/L","",33.4765,"ppt","",,"","",12.7,"C","",7.947,"pH","",,"","",81,"%",
"200711WQPL.csv","2008MAY29155957","1120072543","C8",  32.73267,-117.27333,"20071120",855,18,"m","",2.4316,"ug/L","",25.3501,"sigma-t","",5.97088,"mg/L","",33.4699,"ppt","",,"","",12.3,"C","",7.926,"pH","",,"","",82,"%",
"200711WQPL.csv","2008MAY29155957","1126072560","A1",  32.65933,-117.26200,"20071126",749,1,"m","",2.8151,"ug/L","",24.7713,"sigma-t","",8.03783,"mg/L","",33.5375,"ppt","",,"","",15.3,"C","",8.071,"pH","",,"","",86,"%",
"200711WQPL.csv","2008MAY29155957","1126072561","A1",  32.65933,-117.26200,"20071126",749,12,"m","",2.721,"ug/L","",25.0996,"sigma-t","",7.29566,"mg/L","",33.4717,"ppt","",,"","",13.5,"C","",7.988,"pH","",,"","",85,"%",
"200711WQPL.csv","2008MAY29155957","1126072562","A1",  32.65933,-117.26200,"20071126",749,18,"m","",2.936,"ug/L","",25.1804,"sigma-t","",6.97249,"mg/L","",33.4407,"ppt","",,"","",13,"C","",7.959,"pH","",,"","",85,"%",
"200711WQPL.csv","2008MAY29155957","1126072563","A6",  32.69267,-117.26967,"20071126",840,1,"m","",5.0472,"ug/L","",24.7962,"sigma-t","",8.19586,"mg/L","",33.5235,"ppt","",,"","",15.2,"C","",8.105,"pH","",,"","",86,"%",
"200711WQPL.csv","2008MAY29155957","1126072564","A6",  32.69267,-117.26967,"20071126",840,12,"m","",5.7934,"ug/L","",24.8072,"sigma-t","",8.18386,"mg/L","",33.5206,"ppt","",,"","",15.1,"C","",8.105,"pH","",,"","",86,"%",
"200711WQPL.csv","2008MAY29155957","1126072565","A6",  32.69267,-117.26967,"20071126",840,18,"m","",4.4121,"ug/L","",24.9277,"sigma-t","",7.79396,"mg/L","",33.5047,"ppt","",,"","",14.5,"C","",8.055,"pH","",,"","",87,"%",
"200711WQPL.csv","2008MAY29155957","1126072566","A7",  32.67550,-117.26683,"20071126",820,1,"m","",3.0937,"ug/L","",24.7786,"sigma-t","",7.56752,"mg/L","",33.534,"ppt","",,"","",15.3,"C","",8.086,"pH","",,"","",87,"%",
"200711WQPL.csv","2008MAY29155957","1126072567","A7",  32.67550,-117.26683,"20071126",820,12,"m","",2.4648,"ug/L","",24.9863,"sigma-t","",7.38476,"mg/L","",33.5177,"ppt","",,"","",14.3,"C","",8.017,"pH","",,"","",87,"%",
"200711WQPL.csv","2008MAY29155957","1126072568","A7",  32.67550,-117.26683,"20071126",820,18,"m","",3.0903,"ug/L","",25.1941,"sigma-t","",7.07386,"mg/L","",33.4534,"ppt","",,"","",13,"C","",7.964,"pH","",,"","",86,"%",
"200711WQPL.csv","2008MAY29155957","1126072569","C4",  32.66583,-117.24967,"20071126",957,1,"m","",1.221,"ug/L","",24.8281,"sigma-t","",7.46323,"mg/L","",33.5513,"ppt","",,"","",15.1,"C","",8.068,"pH","",,"","",80,"%",
"200711WQPL.csv","2008MAY29155957","1126072570","C4",  32.66583,-117.24967,"20071126",957,3,"m","",1.3476,"ug/L","",24.8328,"sigma-t","",7.45512,"mg/L","",33.5461,"ppt","",,"","",15.1,"C","",8.066,"pH","",,"","",80,"%",